RYR4SE LYNI-ESSA

Flight info

Callsign RYR4SE
Flight time N/A
Altitude 28000
Route RAVAK DCT NEPOS DCT OKLOP DCT OSVIX DCT PARAK DCT LITKU DCT BABKO DCT RATOR DCT PENOR M607 ARMOD Z228 NILUG
Aircraft B738/M-SDE2E3FGHIRWXY/LB1

Departure

Time 2026-05-05 17:40
Airport Niš Constantine the Great Airport (LYNI)

Arrival

Time N/A
Airport Stockholm-Arlanda Airport (ESSA)
Time Latitude Longitude Altitude Speed Heading
2026-05-05 17:25 43.33678 21.86639 671 ft 0 kts 69°
2026-05-05 17:29 43.33678 21.86637 670 ft 1 kts 68°
2026-05-05 17:29 43.33675 21.86617 670 ft 2 kts 84°
2026-05-05 17:29 43.33674 21.86596 669 ft 2 kts 96°
2026-05-05 17:29 43.33677 21.86576 669 ft 2 kts 108°
2026-05-05 17:30 43.33683 21.86557 669 ft 2 kts 120°
2026-05-05 17:30 43.33686 21.86548 669 ft 0 kts 119°
2026-05-05 17:35 43.33686 21.86550 668 ft 2 kts 119°
2026-05-05 17:35 43.33669 21.86591 669 ft 5 kts 118°
2026-05-05 17:36 43.33644 21.86638 669 ft 6 kts 141°
2026-05-05 17:36 43.33595 21.86672 669 ft 9 kts 156°
2026-05-05 17:36 43.33530 21.86700 667 ft 9 kts 175°
2026-05-05 17:36 43.33463 21.86679 666 ft 10 kts 201°
2026-05-05 17:37 43.33433 21.86661 666 ft 0 kts 205°
2026-05-05 17:38 43.33400 21.86640 665 ft 9 kts 205°
2026-05-05 17:38 43.33351 21.86571 663 ft 11 kts 274°
2026-05-05 17:38 43.33354 21.86550 663 ft 0 kts 285°
2026-05-05 17:39 43.33356 21.86540 662 ft 8 kts 288°
2026-05-05 17:39 43.33498 21.86095 659 ft 90 kts 294°
2026-05-05 17:39 43.33847 21.84991 664 ft 158 kts 293°
2026-05-05 17:39 43.34238 21.83558 1004 ft 160 kts 286°
2026-05-05 17:40 43.34586 21.82041 1349 ft 181 kts 294°
2026-05-05 17:40 43.35019 21.80477 2196 ft 181 kts 276°
2026-05-05 17:40 43.34736 21.78781 2742 ft 192 kts 232°
2026-05-05 17:40 43.33688 21.77614 3337 ft 203 kts 205°
2026-05-05 17:41 43.32274 21.77098 3856 ft 221 kts 190°
2026-05-05 17:41 43.30729 21.76746 4534 ft 232 kts 191°
2026-05-05 17:41 43.29137 21.76326 5336 ft 237 kts 192°
2026-05-05 17:41 43.27528 21.75878 6160 ft 240 kts 191°
2026-05-05 17:42 43.25909 21.75426 6993 ft 242 kts 192°
2026-05-05 17:42 43.24249 21.74968 7766 ft 246 kts 192°
2026-05-05 17:42 43.22575 21.74508 8514 ft 251 kts 192°
2026-05-05 17:42 43.20853 21.74037 9293 ft 255 kts 192°
2026-05-05 17:43 43.19096 21.73607 10029 ft 260 kts 187°
2026-05-05 17:43 43.17284 21.73729 10724 ft 266 kts 163°
2026-05-05 17:43 43.15690 21.74943 11456 ft 267 kts 136°
2026-05-05 17:43 43.14572 21.76911 12130 ft 268 kts 117°
2026-05-05 17:44 43.13916 21.79304 12818 ft 269 kts 98°
2026-05-05 17:44 43.13818 21.81819 13511 ft 269 kts 80°
2026-05-05 17:44 43.14431 21.84207 14171 ft 270 kts 57°
2026-05-05 17:44 43.15619 21.86221 14616 ft 280 kts 41°
2026-05-05 17:45 43.17221 21.87818 14996 ft 293 kts 28°
2026-05-05 17:45 43.19159 21.88840 15359 ft 305 kts
2026-05-05 17:45 43.21254 21.88734 15988 ft 308 kts 346°
2026-05-05 17:45 43.23245 21.87630 16635 ft 313 kts 330°
2026-05-05 17:46 43.24952 21.85798 17278 ft 317 kts 313°
2026-05-05 17:46 43.26426 21.83548 17922 ft 319 kts 319°
2026-05-05 17:46 43.28355 21.82044 18541 ft 320 kts 346°
2026-05-05 17:46 43.30547 21.81807 19200 ft 322 kts
2026-05-05 17:47 43.32788 21.82063 19821 ft 324 kts
2026-05-05 17:47 43.35032 21.82049 20381 ft 327 kts 353°
2026-05-05 17:47 43.37253 21.81443 20991 ft 328 kts 342°
2026-05-05 17:47 43.39378 21.80345 21599 ft 329 kts 336°
2026-05-05 17:48 43.41473 21.79050 22205 ft 331 kts 335°
2026-05-05 17:48 43.43563 21.77714 22738 ft 333 kts 335°
2026-05-05 17:48 43.45671 21.76388 23332 ft 334 kts 335°
2026-05-05 17:48 43.47783 21.75093 23825 ft 337 kts 335°
2026-05-05 17:49 43.49951 21.73790 24411 ft 338 kts 336°
2026-05-05 17:49 43.52079 21.72526 25024 ft 336 kts 336°
2026-05-05 17:49 43.54224 21.71260 25517 ft 338 kts 336°
2026-05-05 17:49 43.56393 21.69984 25919 ft 341 kts 336°
2026-05-05 17:50 43.58601 21.68685 26367 ft 343 kts 335°
2026-05-05 17:50 43.60782 21.67402 26821 ft 345 kts 335°
2026-05-05 17:50 43.62980 21.66108 27242 ft 347 kts 335°
2026-05-05 17:50 43.65194 21.64804 27657 ft 348 kts 335°
2026-05-05 17:51 43.67448 21.63475 27989 ft 352 kts 335°
2026-05-05 17:51 43.69729 21.62128 27996 ft 359 kts 335°
2026-05-05 17:51 43.72040 21.60759 28000 ft 370 kts 335°
2026-05-05 17:51 43.74447 21.59333 27992 ft 377 kts 335°
2026-05-05 17:52 43.76829 21.57922 27987 ft 376 kts 335°
2026-05-05 17:52 43.79224 21.56503 27988 ft 374 kts 335°
2026-05-05 17:52 43.81641 21.55070 27986 ft 375 kts 335°
2026-05-05 17:52 43.84038 21.53646 27986 ft 376 kts 335°
2026-05-05 17:53 43.86433 21.52223 27985 ft 376 kts 335°
2026-05-05 17:53 43.88845 21.50787 27981 ft 376 kts 335°
2026-05-05 17:53 43.91217 21.49374 27980 ft 377 kts 335°
2026-05-05 17:53 43.93635 21.47933 27978 ft 377 kts 335°
2026-05-05 17:54 43.96024 21.46508 27976 ft 376 kts 335°
2026-05-05 17:54 43.98426 21.45073 27978 ft 376 kts 335°
2026-05-05 17:54 44.00847 21.43627 27977 ft 376 kts 335°
2026-05-05 17:54 44.03249 21.42193 27971 ft 376 kts 335°
2026-05-05 17:55 44.05626 21.40776 27968 ft 377 kts 335°
2026-05-05 17:55 44.08038 21.39337 27968 ft 377 kts 335°
2026-05-05 17:55 44.10466 21.37889 27965 ft 377 kts 335°
2026-05-05 17:55 44.12877 21.36449 27962 ft 377 kts 335°
2026-05-05 17:56 44.15303 21.34999 27964 ft 378 kts 335°
2026-05-05 17:56 44.17707 21.33559 27965 ft 378 kts 335°
2026-05-05 17:56 44.20132 21.32103 27964 ft 378 kts 335°
2026-05-05 17:56 44.22541 21.30651 27962 ft 379 kts 335°
2026-05-05 17:57 44.24952 21.29194 27966 ft 380 kts 335°
2026-05-05 17:57 44.27378 21.27726 27963 ft 379 kts 335°
2026-05-05 17:57 44.29781 21.26272 27961 ft 378 kts 335°
2026-05-05 17:57 44.32201 21.24806 27971 ft 378 kts 334°
2026-05-05 17:58 44.34621 21.23339 27962 ft 379 kts 335°
2026-05-05 17:58 44.37018 21.21886 27961 ft 378 kts 334°
2026-05-05 17:58 44.39449 21.20414 27965 ft 377 kts 334°
2026-05-05 17:58 44.41835 21.18967 27968 ft 378 kts 334°
2026-05-05 17:59 44.44269 21.17489 27966 ft 378 kts 334°
2026-05-05 17:59 44.46669 21.16032 27964 ft 379 kts 334°
2026-05-05 17:59 44.49092 21.14558 27958 ft 379 kts 334°
2026-05-05 17:59 44.51510 21.13087 27956 ft 379 kts 334°
2026-05-05 18:00 44.53937 21.11608 27950 ft 380 kts 334°
2026-05-05 18:00 44.56334 21.10146 27948 ft 379 kts 334°
2026-05-05 18:00 44.58739 21.08678 27954 ft 379 kts 334°
2026-05-05 18:00 44.61154 21.07202 27952 ft 379 kts 334°
2026-05-05 18:01 44.63580 21.05720 27943 ft 379 kts 334°
2026-05-05 18:01 44.65996 21.04241 27948 ft 379 kts 334°
2026-05-05 18:01 44.68412 21.02760 27947 ft 380 kts 335°
2026-05-05 18:01 44.70835 21.01275 27945 ft 379 kts 335°
2026-05-05 18:02 44.73264 20.99785 27947 ft 380 kts 334°
2026-05-05 18:02 44.75658 20.98314 27938 ft 379 kts 334°
2026-05-05 18:02 44.78068 20.96832 27937 ft 379 kts 334°
2026-05-05 18:02 44.80502 20.95334 27937 ft 380 kts 334°
2026-05-05 18:03 44.82904 20.93854 27936 ft 380 kts 334°
2026-05-05 18:03 44.85321 20.92364 27935 ft 380 kts 334°
2026-05-05 18:03 44.87751 20.90864 27933 ft 380 kts 334°
2026-05-05 18:03 44.90188 20.89359 27938 ft 380 kts 334°
2026-05-05 18:04 44.92602 20.87866 27936 ft 381 kts 334°
2026-05-05 18:04 44.95017 20.86372 27939 ft 380 kts 334°
2026-05-05 18:04 44.97448 20.84866 27936 ft 381 kts 334°
2026-05-05 18:04 44.99869 20.83365 27931 ft 381 kts 334°
2026-05-05 18:05 45.02300 20.81856 27932 ft 381 kts 334°
2026-05-05 18:05 45.04714 20.80356 27931 ft 380 kts 334°
2026-05-05 18:05 45.07123 20.78859 27932 ft 381 kts 334°
2026-05-05 18:05 45.09537 20.77357 27931 ft 382 kts 334°
2026-05-05 18:06 45.11968 20.75842 27928 ft 381 kts 334°
2026-05-05 18:06 45.13590 20.74831 27931 ft 381 kts 334°
2026-05-05 18:06 45.16843 20.72801 27928 ft 382 kts 334°
2026-05-05 18:06 45.19292 20.71271 27929 ft 382 kts 334°
2026-05-05 18:07 45.21725 20.69749 27927 ft 382 kts 334°
2026-05-05 18:07 45.24141 20.68237 27927 ft 383 kts 334°
2026-05-05 18:07 45.26566 20.66717 27925 ft 382 kts 334°
2026-05-05 18:07 45.29021 20.65179 27924 ft 382 kts 334°
2026-05-05 18:08 45.31434 20.63665 27923 ft 383 kts 334°
2026-05-05 18:08 45.33875 20.62131 27919 ft 383 kts 334°
2026-05-05 18:08 45.36281 20.60618 27919 ft 381 kts 334°
2026-05-05 18:08 45.38704 20.59094 27921 ft 382 kts 334°
2026-05-05 18:09 45.41136 20.57562 27919 ft 383 kts 334°
2026-05-05 18:09 45.43576 20.56023 27917 ft 382 kts 334°
2026-05-05 18:09 45.46004 20.54491 27920 ft 382 kts 334°
2026-05-05 18:09 45.48451 20.52945 27920 ft 382 kts 334°
2026-05-05 18:10 45.50863 20.51420 27919 ft 382 kts 334°
2026-05-05 18:10 45.53278 20.49891 27918 ft 383 kts 334°
2026-05-05 18:10 45.55726 20.48340 27916 ft 383 kts 334°
2026-05-05 18:10 45.58165 20.46793 27916 ft 383 kts 334°
2026-05-05 18:11 45.60592 20.45252 27915 ft 383 kts 334°
2026-05-05 18:11 45.63016 20.43712 27918 ft 383 kts 334°
2026-05-05 18:11 45.65453 20.42162 27918 ft 383 kts 334°
2026-05-05 18:11 45.67872 20.40623 27921 ft 383 kts 334°
2026-05-05 18:12 45.70287 20.39085 27921 ft 383 kts 334°
2026-05-05 18:12 45.72739 20.37521 27921 ft 383 kts 334°
2026-05-05 18:12 45.75143 20.35986 27919 ft 383 kts 334°
2026-05-05 18:12 45.77596 20.34420 27919 ft 383 kts 334°
2026-05-05 18:13 45.80012 20.32875 27917 ft 382 kts 334°
2026-05-05 18:13 45.82435 20.31323 27917 ft 382 kts 334°
2026-05-05 18:13 45.84862 20.29765 27917 ft 383 kts 334°
2026-05-05 18:13 45.87302 20.28199 27917 ft 383 kts 334°
2026-05-05 18:14 45.89728 20.26642 27916 ft 383 kts 334°
2026-05-05 18:14 45.92152 20.25085 27915 ft 383 kts 334°
2026-05-05 18:14 45.94576 20.23527 27916 ft 384 kts 334°
2026-05-05 18:14 45.97008 20.21962 27915 ft 384 kts 334°
2026-05-05 18:15 45.99453 20.20387 27911 ft 384 kts 334°
2026-05-05 18:15 46.01876 20.18823 27909 ft 384 kts 334°
2026-05-05 18:15 46.04323 20.17244 27910 ft 384 kts 334°
2026-05-05 18:15 46.06744 20.15680 27912 ft 384 kts 334°
2026-05-05 18:16 46.09170 20.14110 27908 ft 384 kts 334°
2026-05-05 18:16 46.11637 20.12513 27907 ft 385 kts 334°
2026-05-05 18:16 46.14064 20.10989 27907 ft 385 kts 335°
2026-05-05 18:16 46.16560 20.09651 27906 ft 386 kts 340°
2026-05-05 18:17 46.19160 20.08673 27907 ft 387 kts 345°
2026-05-05 18:17 46.21806 20.07944 27905 ft 389 kts 348°
2026-05-05 18:17 46.24467 20.07334 27901 ft 388 kts 349°
2026-05-05 18:17 46.27152 20.06760 27904 ft 388 kts 349°
2026-05-05 18:18 46.29834 20.06190 27907 ft 388 kts 349°
2026-05-05 18:18 46.32492 20.05616 27906 ft 388 kts 349°
2026-05-05 18:18 46.35177 20.05024 27908 ft 388 kts 348°
2026-05-05 18:18 46.37826 20.04429 27909 ft 388 kts 348°
2026-05-05 18:19 46.40474 20.03827 27907 ft 388 kts 348°
2026-05-05 18:19 46.43168 20.03208 27906 ft 388 kts 348°
2026-05-05 18:19 46.45814 20.02596 27904 ft 388 kts 348°
2026-05-05 18:19 46.48482 20.01977 27901 ft 388 kts 348°
2026-05-05 18:20 46.51145 20.01357 27900 ft 388 kts 348°
2026-05-05 18:20 46.53802 20.00736 27899 ft 388 kts 348°
2026-05-05 18:20 46.56469 20.00112 27901 ft 388 kts 348°
2026-05-05 18:20 46.59119 19.99492 27900 ft 388 kts 348°
2026-05-05 18:21 46.61770 19.98870 27897 ft 388 kts 348°
2026-05-05 18:21 46.64432 19.98246 27895 ft 388 kts 348°
2026-05-05 18:21 46.67117 19.97615 27891 ft 388 kts 348°
2026-05-05 18:21 46.69759 19.96993 27893 ft 389 kts 348°
2026-05-05 18:22 46.72445 19.96361 27892 ft 388 kts 348°
2026-05-05 18:22 46.75101 19.95735 27892 ft 389 kts 348°
2026-05-05 18:22 46.77755 19.95109 27896 ft 389 kts 348°
2026-05-05 18:22 46.80415 19.94481 27897 ft 389 kts 348°
2026-05-05 18:23 46.83080 19.93851 27902 ft 389 kts 348°
2026-05-05 18:23 46.85773 19.93214 27900 ft 389 kts 348°
2026-05-05 18:23 46.88400 19.92592 27900 ft 389 kts 348°
2026-05-05 18:23 46.91075 19.91959 27902 ft 389 kts 348°
2026-05-05 18:24 46.93734 19.91328 27897 ft 389 kts 348°
2026-05-05 18:24 46.96410 19.90693 27899 ft 389 kts 348°
2026-05-05 18:24 46.99094 19.90055 27899 ft 389 kts 348°
2026-05-05 18:24 47.01752 19.89422 27897 ft 390 kts 348°
2026-05-05 18:25 47.04438 19.88782 27898 ft 389 kts 348°
2026-05-05 18:25 47.06197 19.88363 27898 ft 389 kts 348°
2026-05-05 18:25 47.09768 19.87511 27896 ft 390 kts 348°
2026-05-05 18:25 47.12426 19.86876 27896 ft 390 kts 348°
2026-05-05 18:26 47.15103 19.86235 27893 ft 390 kts 348°
2026-05-05 18:26 47.17811 19.85587 27894 ft 391 kts 348°
2026-05-05 18:26 47.20457 19.84953 27895 ft 390 kts 348°
2026-05-05 18:26 47.23149 19.84307 27893 ft 391 kts 348°
2026-05-05 18:27 47.25839 19.83660 27891 ft 392 kts 348°
2026-05-05 18:27 47.28536 19.83012 27890 ft 392 kts 348°
2026-05-05 18:27 47.31214 19.82369 27891 ft 391 kts 348°
2026-05-05 18:27 47.33866 19.81730 27891 ft 392 kts 348°
2026-05-05 18:28 47.39278 19.80424 27894 ft 392 kts 348°
2026-05-05 18:28 47.41981 19.79771 27893 ft 392 kts 348°
2026-05-05 18:28 47.44663 19.79122 27893 ft 392 kts 348°
2026-05-05 18:29 47.47352 19.78471 27894 ft 392 kts 348°
2026-05-05 18:29 47.50061 19.77814 27894 ft 393 kts 348°
2026-05-05 18:29 47.52756 19.77160 27894 ft 393 kts 348°
2026-05-05 18:29 47.55454 19.76505 27895 ft 393 kts 348°
2026-05-05 18:30 47.58163 19.75846 27895 ft 394 kts 348°
2026-05-05 18:30 47.60854 19.75191 27896 ft 393 kts 348°
2026-05-05 18:30 47.63579 19.74527 27895 ft 393 kts 348°
2026-05-05 18:30 47.66281 19.73869 27896 ft 392 kts 348°
2026-05-05 18:31 47.68962 19.73214 27897 ft 393 kts 348°
2026-05-05 18:31 47.71677 19.72550 27897 ft 393 kts 348°
2026-05-05 18:31 47.74408 19.71882 27898 ft 393 kts 348°
2026-05-05 18:31 47.77104 19.71222 27898 ft 394 kts 348°
2026-05-05 18:32 47.79814 19.70557 27898 ft 394 kts 348°
2026-05-05 18:32 47.82520 19.69893 27899 ft 393 kts 348°
2026-05-05 18:32 47.85191 19.69237 27900 ft 394 kts 348°
2026-05-05 18:32 47.87897 19.68571 27900 ft 394 kts 348°
2026-05-05 18:33 47.90634 19.67897 27901 ft 394 kts 348°
2026-05-05 18:33 47.93341 19.67230 27902 ft 394 kts 348°
2026-05-05 18:33 47.96021 19.66569 27903 ft 394 kts 349°
2026-05-05 18:33 47.98752 19.65894 27905 ft 394 kts 349°
2026-05-05 18:34 48.01431 19.65231 27905 ft 395 kts 349°
2026-05-05 18:34 48.04143 19.64560 27901 ft 394 kts 349°
2026-05-05 18:34 48.06880 19.63882 27901 ft 394 kts 348°
2026-05-05 18:34 48.09594 19.63209 27904 ft 394 kts 349°
2026-05-05 18:35 48.12296 19.62538 27900 ft 395 kts 349°
2026-05-05 18:35 48.15016 19.61862 27900 ft 395 kts 349°
2026-05-05 18:35 48.17704 19.61193 27896 ft 394 kts 349°
2026-05-05 18:35 48.20418 19.60516 27892 ft 395 kts 349°
2026-05-05 18:36 48.23130 19.59866 27893 ft 395 kts 350°
2026-05-05 18:36 48.25860 19.59415 27896 ft 397 kts 353°
2026-05-05 18:36 48.28634 19.59122 27897 ft 397 kts 355°
2026-05-05 18:36 48.31391 19.58901 27892 ft 397 kts 355°
2026-05-05 18:37 48.34161 19.58697 27893 ft 397 kts 355°
2026-05-05 18:37 48.36930 19.58489 27894 ft 398 kts 355°
2026-05-05 18:37 48.39658 19.58275 27895 ft 398 kts 355°
2026-05-05 18:37 48.42440 19.58046 27893 ft 398 kts 355°
2026-05-05 18:38 48.45197 19.57809 27893 ft 398 kts 355°
2026-05-05 18:38 48.47961 19.57566 27895 ft 398 kts 355°
2026-05-05 18:38 48.50739 19.57317 27898 ft 398 kts 355°
2026-05-05 18:38 48.53497 19.57067 27896 ft 398 kts 355°
2026-05-05 18:39 48.56263 19.56814 27902 ft 398 kts 355°
2026-05-05 18:39 48.59004 19.56563 27907 ft 399 kts 355°
2026-05-05 18:39 48.61787 19.56306 27909 ft 399 kts 355°
2026-05-05 18:39 48.64573 19.56049 27911 ft 399 kts 355°
2026-05-05 18:40 48.67308 19.55796 27915 ft 399 kts 355°
2026-05-05 18:40 48.70112 19.55536 27918 ft 400 kts 355°
2026-05-05 18:40 48.72888 19.55279 27916 ft 399 kts 355°
2026-05-05 18:40 48.75631 19.55025 27920 ft 399 kts 355°
2026-05-05 18:41 48.78418 19.54766 27920 ft 399 kts 355°
2026-05-05 18:41 48.81173 19.54510 27919 ft 399 kts 355°
2026-05-05 18:41 48.83942 19.54252 27922 ft 399 kts 355°
2026-05-05 18:41 48.86727 19.53993 27924 ft 399 kts 355°
2026-05-05 18:42 48.89490 19.53735 27925 ft 400 kts 355°
2026-05-05 18:42 48.92264 19.53476 27925 ft 400 kts 355°
2026-05-05 18:42 48.95041 19.53216 27926 ft 400 kts 355°
2026-05-05 18:42 48.97805 19.52957 27924 ft 400 kts 355°
2026-05-05 18:43 49.00584 19.52696 27924 ft 400 kts 355°
2026-05-05 18:43 49.03374 19.52435 27924 ft 399 kts 355°
2026-05-05 18:43 49.06114 19.52178 27921 ft 400 kts 355°
2026-05-05 18:43 49.08899 19.51916 27919 ft 399 kts 355°
2026-05-05 18:44 49.11651 19.51657 27920 ft 398 kts 355°
2026-05-05 18:44 49.14415 19.51397 27917 ft 399 kts 355°
2026-05-05 18:44 49.17166 19.51137 27917 ft 399 kts 355°
2026-05-05 18:44 49.19943 19.50875 27912 ft 399 kts 355°
2026-05-05 18:45 49.22703 19.50614 27906 ft 398 kts 355°
2026-05-05 18:45 49.25477 19.50352 27903 ft 398 kts 355°
2026-05-05 18:45 49.28225 19.50092 27902 ft 398 kts 355°
2026-05-05 18:45 49.30989 19.49829 27903 ft 398 kts 355°
2026-05-05 18:46 49.33726 19.49569 27902 ft 398 kts 355°
2026-05-05 18:46 49.36503 19.49305 27901 ft 398 kts 355°
2026-05-05 18:46 49.39240 19.49044 27896 ft 398 kts 355°
2026-05-05 18:46 49.42020 19.48779 27891 ft 397 kts 355°
2026-05-05 18:47 49.44758 19.48517 27894 ft 397 kts 355°
2026-05-05 18:47 49.47527 19.48253 27893 ft 397 kts 355°
2026-05-05 18:47 49.50250 19.47993 27892 ft 397 kts 355°
2026-05-05 18:47 49.53009 19.47730 27888 ft 397 kts 355°
2026-05-05 18:48 49.55759 19.47466 27889 ft 397 kts 355°
2026-05-05 18:48 49.58519 19.47201 27886 ft 397 kts 355°
2026-05-05 18:48 49.61274 19.46837 27881 ft 396 kts 352°
2026-05-05 18:48 49.63993 19.46185 27876 ft 396 kts 348°
2026-05-05 18:49 49.66647 19.45357 27873 ft 396 kts 347°
2026-05-05 18:49 49.69336 19.44436 27873 ft 396 kts 346°
2026-05-05 18:49 49.72042 19.43483 27870 ft 396 kts 346°
2026-05-05 18:49 49.74702 19.42550 27865 ft 396 kts 346°
2026-05-05 18:50 49.77410 19.41610 27857 ft 395 kts 346°
2026-05-05 18:50 49.80083 19.40693 27853 ft 395 kts 347°
2026-05-05 18:50 49.82743 19.39790 27841 ft 395 kts 347°
2026-05-05 18:50 49.85447 19.38878 27836 ft 394 kts 347°
2026-05-05 18:51 49.88108 19.37982 27836 ft 394 kts 347°
2026-05-05 18:51 49.90782 19.37084 27830 ft 395 kts 347°
2026-05-05 18:51 49.93459 19.36185 27819 ft 394 kts 347°
2026-05-05 18:51 49.96143 19.35284 27812 ft 394 kts 347°
2026-05-05 18:52 49.98792 19.34393 27812 ft 394 kts 346°
2026-05-05 18:52 50.01495 19.33483 27807 ft 394 kts 346°
2026-05-05 18:52 50.04150 19.32588 27806 ft 394 kts 346°
2026-05-05 18:52 50.06846 19.31678 27803 ft 394 kts 346°
2026-05-05 18:53 50.09491 19.30785 27808 ft 394 kts 346°
2026-05-05 18:53 50.12181 19.29876 27805 ft 394 kts 346°
2026-05-05 18:53 50.14855 19.28972 27806 ft 393 kts 346°
2026-05-05 18:53 50.17504 19.28075 27804 ft 393 kts 346°
2026-05-05 18:54 50.20193 19.27164 27805 ft 393 kts 346°
2026-05-05 18:54 50.22832 19.26268 27803 ft 393 kts 346°
2026-05-05 18:54 50.25522 19.25353 27806 ft 393 kts 346°
2026-05-05 18:54 50.28182 19.24448 27802 ft 393 kts 346°
2026-05-05 18:55 50.30853 19.23538 27802 ft 393 kts 346°
2026-05-05 18:55 50.33503 19.22634 27801 ft 393 kts 346°
2026-05-05 18:55 50.36147 19.21731 27807 ft 393 kts 346°
2026-05-05 18:55 50.38833 19.20812 27809 ft 394 kts 346°
2026-05-05 18:56 50.41479 19.19905 27809 ft 393 kts 346°
2026-05-05 18:56 50.44171 19.18982 27809 ft 393 kts 346°
2026-05-05 18:56 50.46824 19.18072 27816 ft 393 kts 346°
2026-05-05 18:56 50.49492 19.17155 27814 ft 393 kts 346°
2026-05-05 18:57 50.52132 19.16246 27814 ft 393 kts 346°
2026-05-05 18:57 50.54810 19.15324 27818 ft 393 kts 346°
2026-05-05 18:57 50.57471 19.14407 27820 ft 393 kts 346°
2026-05-05 18:57 50.60143 19.13484 27816 ft 392 kts 346°
2026-05-05 18:58 50.62782 19.12572 27815 ft 393 kts 346°
2026-05-05 18:58 50.65463 19.11643 27815 ft 393 kts 346°
2026-05-05 18:58 50.67450 19.10955 27809 ft 392 kts 346°
2026-05-05 18:58 50.70129 19.10027 27809 ft 391 kts 346°
2026-05-05 18:59 50.72753 19.09117 27811 ft 392 kts 346°
2026-05-05 18:59 50.75412 19.08194 27806 ft 392 kts 346°
2026-05-05 18:59 50.78077 19.07266 27803 ft 392 kts 346°
2026-05-05 18:59 50.80738 19.06340 27806 ft 392 kts 346°
2026-05-05 19:00 50.83393 19.05414 27799 ft 393 kts 346°
2026-05-05 19:00 50.86071 19.04479 27793 ft 393 kts 346°
2026-05-05 19:00 50.88747 19.03544 27792 ft 393 kts 346°
2026-05-05 19:00 50.91378 19.02624 27782 ft 393 kts 346°
2026-05-05 19:01 50.94058 19.01685 27783 ft 392 kts 346°
2026-05-05 19:01 50.96711 19.00755 27782 ft 392 kts 346°
2026-05-05 19:01 50.99377 18.99819 27777 ft 392 kts 346°
2026-05-05 19:01 51.02013 18.98892 27772 ft 391 kts 346°
2026-05-05 19:02 51.04667 18.97958 27772 ft 392 kts 346°
2026-05-05 19:02 51.07328 18.97019 27769 ft 393 kts 346°
2026-05-05 19:02 51.13099 18.94982 27768 ft 393 kts 346°
2026-05-05 19:03 51.15768 18.94038 27770 ft 393 kts 346°
2026-05-05 19:03 51.18412 18.93102 27769 ft 393 kts 346°
2026-05-05 19:03 51.21077 18.92157 27765 ft 393 kts 346°
2026-05-05 19:03 51.23751 18.91208 27765 ft 393 kts 346°
2026-05-05 19:04 51.26392 18.90270 27763 ft 392 kts 346°
2026-05-05 19:04 51.29049 18.89325 27765 ft 393 kts 346°
2026-05-05 19:04 51.31723 18.88374 27764 ft 393 kts 346°
2026-05-05 19:04 51.34390 18.87423 27767 ft 392 kts 345°
2026-05-05 19:05 51.37048 18.86473 27767 ft 393 kts 345°
2026-05-05 19:05 51.39689 18.85528 27768 ft 393 kts 346°
2026-05-05 19:05 51.42351 18.84574 27771 ft 394 kts 345°
2026-05-05 19:05 51.45033 18.83613 27769 ft 394 kts 345°
2026-05-05 19:06 51.47697 18.82656 27772 ft 394 kts 345°
2026-05-05 19:06 51.50343 18.81705 27773 ft 394 kts 345°
2026-05-05 19:06 51.53037 18.80737 27774 ft 394 kts 345°
2026-05-05 19:06 51.55677 18.79787 27772 ft 394 kts 345°
2026-05-05 19:07 51.58348 18.78825 27771 ft 395 kts 345°
2026-05-05 19:07 51.61024 18.77859 27771 ft 395 kts 345°
2026-05-05 19:07 51.63705 18.76891 27771 ft 395 kts 345°
2026-05-05 19:07 51.66380 18.75923 27770 ft 395 kts 345°
2026-05-05 19:08 51.69044 18.74957 27772 ft 396 kts 345°
2026-05-05 19:08 51.71733 18.73980 27771 ft 396 kts 345°
2026-05-05 19:08 51.74425 18.73000 27773 ft 396 kts 345°
2026-05-05 19:08 51.77103 18.72026 27774 ft 397 kts 345°
2026-05-05 19:09 51.79807 18.71041 27772 ft 397 kts 345°
2026-05-05 19:09 51.82461 18.70074 27773 ft 395 kts 345°
2026-05-05 19:09 51.85165 18.69087 27775 ft 397 kts 345°
2026-05-05 19:09 51.87831 18.68112 27773 ft 399 kts 344°
2026-05-05 19:10 51.90533 18.67122 27771 ft 398 kts 345°
2026-05-05 19:10 51.93229 18.66136 27770 ft 397 kts 345°
2026-05-05 19:10 51.95921 18.65149 27772 ft 397 kts 345°
2026-05-05 19:10 51.98586 18.64171 27772 ft 397 kts 345°
2026-05-05 19:11 52.01279 18.63180 27769 ft 398 kts 345°
2026-05-05 19:11 52.03986 18.62183 27766 ft 399 kts 344°
2026-05-05 19:11 52.06694 18.61184 27767 ft 398 kts 344°
2026-05-05 19:11 52.09405 18.60183 27768 ft 399 kts 344°
2026-05-05 19:12 52.12073 18.59198 27765 ft 398 kts 344°
2026-05-05 19:12 52.14788 18.58194 27768 ft 398 kts 344°
2026-05-05 19:12 52.17472 18.57201 27768 ft 397 kts 344°
2026-05-05 19:12 52.20165 18.56204 27761 ft 399 kts 344°
2026-05-05 19:13 52.22852 18.55208 27765 ft 397 kts 344°
2026-05-05 19:13 52.25554 18.54205 27766 ft 397 kts 343°
2026-05-05 19:13 52.28224 18.53210 27771 ft 397 kts 343°
2026-05-05 19:13 52.30898 18.52214 27774 ft 397 kts 343°
2026-05-05 19:14 52.33586 18.51213 27773 ft 397 kts 343°
2026-05-05 19:14 52.36276 18.50207 27780 ft 397 kts 343°
2026-05-05 19:14 52.38980 18.49196 27780 ft 397 kts 343°
2026-05-05 19:14 52.41665 18.48190 27782 ft 398 kts 343°
2026-05-05 19:15 52.44360 18.47181 27781 ft 396 kts 343°
2026-05-05 19:15 52.47052 18.46172 27788 ft 396 kts 343°
2026-05-05 19:15 52.49720 18.45172 27797 ft 396 kts 343°
2026-05-05 19:15 52.52405 18.44161 27801 ft 395 kts 343°
2026-05-05 19:16 52.55075 18.43155 27802 ft 396 kts 343°
2026-05-05 19:16 52.57730 18.42151 27799 ft 396 kts 343°
2026-05-05 19:16 52.60425 18.41132 27795 ft 396 kts 342°
2026-05-05 19:16 52.63118 18.40114 27804 ft 397 kts 342°
2026-05-05 19:17 52.65808 18.39096 27807 ft 395 kts 342°
2026-05-05 19:17 52.68460 18.38090 27809 ft 396 kts 342°
2026-05-05 19:17 52.71155 18.37064 27806 ft 397 kts 342°
2026-05-05 19:17 52.73835 18.36044 27803 ft 395 kts 342°
2026-05-05 19:18 52.76507 18.35027 27810 ft 394 kts 342°
2026-05-05 19:18 52.79160 18.34018 27818 ft 393 kts 341°
2026-05-05 19:18 52.81839 18.32995 27813 ft 394 kts 341°
2026-05-05 19:18 52.84525 18.31969 27816 ft 393 kts 341°
2026-05-05 19:19 52.87174 18.30957 27820 ft 393 kts 341°
2026-05-05 19:19 52.89854 18.29930 27817 ft 395 kts 341°
2026-05-05 19:19 52.92527 18.28903 27817 ft 394 kts 341°
2026-05-05 19:19 52.95187 18.27883 27819 ft 393 kts 341°
2026-05-05 19:20 52.97815 18.26873 27821 ft 394 kts 341°
2026-05-05 19:20 53.00487 18.25846 27827 ft 394 kts 341°
2026-05-05 19:20 53.03142 18.24822 27831 ft 394 kts 341°
2026-05-05 19:20 53.05795 18.23797 27825 ft 393 kts 341°
2026-05-05 19:21 53.08461 18.22765 27826 ft 395 kts 341°
2026-05-05 19:21 53.11174 18.21714 27835 ft 394 kts 341°
2026-05-05 19:21 53.13821 18.20689 27833 ft 393 kts 341°
2026-05-05 19:21 53.16470 18.19663 27830 ft 392 kts 341°
2026-05-05 19:22 53.19102 18.18642 27835 ft 392 kts 341°
2026-05-05 19:22 53.21763 18.17607 27839 ft 392 kts 340°
2026-05-05 19:22 53.24431 18.16568 27842 ft 392 kts 340°
2026-05-05 19:22 53.27088 18.15532 27841 ft 390 kts 340°
2026-05-05 19:23 53.28857 18.14842 27844 ft 390 kts 340°
2026-05-05 19:23 53.31490 18.13814 27843 ft 391 kts 340°